Montreal, Quebec

6:37 AM EDT on April 26, 2017 (GMT -0400)
Montreal-Pierre Elliott Trudeau Int'l Airport

Weather History for CYUL - November, 2012

Change the Weather History Date:

Tuesday, November 13, 2012

  Actual Average Record
Temperature  
Mean Temperature 36 °F -  
Max Temperature 43 °F 35 °F 57 °F (2005)
Min Temperature 30 °F 21 °F 17 °F (1996)
Degree Days  
Heating Degree Days 28    
Moisture  
Dew Point 31 °F    
Average Humidity 67    
Maximum Humidity 87    
Minimum Humidity 41    
Precipitation  
Precipitation 0.04 in 0.12 in - ()
Sea Level Pressure  
Sea Level Pressure 30.27 in    
Wind  
Wind Speed 18 mph ()    
Max Wind Speed 30 mph    
Max Gust Speed 45 mph    
Visibility 14.2 miles    
Events Rain    
Averages and records for this station are not official NWS values.
T = Trace of Precipitation, MM = Missing Value Source: Averaged Metar Reports

Daily Weather History Graph

Daily Weather History Graph

Search for Another Location

Airport or City:

Trip Planner

Search our weather history database for the weather conditions in past years. The results will help you decide how hot, cold, wet, or windy it might be!

Date:

Astronomy

Nov. 13, 2012 Rise Set
Actual Time 6:51 AM EST 4:26 PM EST
Civil Twilight 6:19 AM EST 4:58 PM EST
Nautical Twilight 5:44 AM EST 5:34 PM EST
Astronomical Twilight 5:09 AM EST 6:08 PM EST
Moon 6:27 AM EST (11/13) 4:15 PM EST (11/13)
Length of Visible Light 10h 38m
Length of Day
9h 34m
Waning Crescent, 0% of the Moon is Illuminated
Nov 13
Waning Crescent
Nov 13
New
Nov 20
First Quarter
Nov 28
Full
Dec 6
Last Quarter

Hourly Weather History & Observations

Time (EST) Temp. Windchill Dew Point Humidity Pressure Visibility Wind Dir Wind Speed Gust Speed Precip Events Conditions
12:00 AM 59.0 °F - 50.0 °F 72% 29.94 in 15.0 mi West 29.9 mph 42.6 mph N/A Rain Light Rain
12:40 AM 50.0 °F - - N/A% - 8.0 mi West 23.0 mph 32.2 mph N/A Rain Light Rain
1:00 AM 48 °F - 45 °F 87% 30.03 in 7 mi West 26.5 mph - - Rain Light Rain
1:00 AM 48.2 °F - 44.6 °F 87% 30.03 in 8.0 mi West 23.0 mph 44.9 mph N/A Rain Light Rain
2:00 AM 46.4 °F 38.5 °F 42.8 °F 87% 30.06 in 15.0 mi West 21.9 mph 27.6 mph N/A Rain Light Rain
3:00 AM 46.4 °F 37.9 °F 42.8 °F 87% 30.09 in 15.0 mi West 25.3 mph 33.4 mph N/A Rain Light Rain
4:00 AM 42.8 °F 34.8 °F 39.2 °F 87% 30.12 in 15.0 mi West 17.3 mph 28.8 mph N/A Rain Light Rain
5:00 AM 42.8 °F 34.5 °F 37.4 °F 81% 30.14 in 15.0 mi SW 18.4 mph 28.8 mph N/A Rain Light Rain
6:00 AM 42.8 °F 34.5 °F 37.4 °F 81% 30.18 in 15.0 mi SW 18.4 mph 24.2 mph N/A   Overcast
7:00 AM 42 °F - 36 °F 72% 30.19 in 15 mi SW 19.6 mph - -   Partly Cloudy
7:00 AM 41.0 °F 32.2 °F 35.6 °F 81% 30.19 in 15.0 mi SW 18.4 mph 25.3 mph N/A   Overcast
8:00 AM 41.0 °F 31.6 °F 33.8 °F 76% 30.22 in 15.0 mi WSW 20.7 mph - N/A   Mostly Cloudy
8:31 AM 41.0 °F 31.9 °F - N/A% - 15.0 mi West 19.6 mph 25.3 mph N/A Rain Light Rain Showers
9:00 AM 41.0 °F 31.9 °F 30.2 °F 65% 30.24 in 15.0 mi West 19.6 mph 29.9 mph N/A   Mostly Cloudy
10:00 AM 41.0 °F 31.1 °F 30.2 °F 65% 30.28 in 15.0 mi West 23.0 mph - N/A   Mostly Cloudy
11:00 AM 41.0 °F 32.2 °F 28.4 °F 61% 30.28 in 30.0 mi West 18.4 mph 28.8 mph N/A   Mostly Cloudy
12:00 PM 42.8 °F 34.8 °F 28.4 °F 57% 30.28 in 30.0 mi West 17.3 mph 25.3 mph N/A   Mostly Cloudy
1:00 PM 42 °F - 26 °F 41% 30.30 in 28 mi West 20.7 mph - -   Partly Cloudy
1:00 PM 41.0 °F 31.6 °F 26.6 °F 57% 30.30 in 30.0 mi WSW 20.7 mph 27.6 mph N/A   Mostly Cloudy
2:00 PM 42.8 °F 34.5 °F 21.2 °F 42% 30.31 in 15.0 mi West 18.4 mph 27.6 mph N/A   Partly Cloudy
3:00 PM 41.0 °F 32.5 °F 26.6 °F 57% 30.33 in 15.0 mi West 17.3 mph - N/A   Partly Cloudy
4:00 PM 41.0 °F 33.1 °F 23.0 °F 49% 30.35 in 15.0 mi West 15.0 mph - N/A   Partly Cloudy
5:00 PM 39.2 °F 33.6 °F 21.2 °F 49% 30.38 in 15.0 mi WSW 8.1 mph - N/A   Partly Cloudy
6:00 PM 37.4 °F 32.1 °F 23.0 °F 56% 30.42 in 15.0 mi West 6.9 mph - N/A   Clear
7:00 PM 33 °F - 22 °F 52% 30.43 in 15 mi West 6.9 mph - -  
7:00 PM 33.8 °F 27.7 °F 21.2 °F 60% 30.43 in 15.0 mi West 6.9 mph - N/A   Clear
8:00 PM 30.2 °F 24.3 °F 21.2 °F 69% 30.46 in 15.0 mi West 5.8 mph - N/A   Clear
9:00 PM 30.2 °F 25.4 °F 21.2 °F 69% 30.48 in 15.0 mi West 4.6 mph - N/A   Clear
10:00 PM 30.2 °F 25.4 °F 21.2 °F 69% 30.50 in 15.0 mi WNW 4.6 mph - N/A   Clear
11:00 PM 30.2 °F 25.4 °F 21.2 °F 69% 30.51 in 15.0 mi WNW 4.6 mph - N/A   Clear